This demonstration page uses our WeatherBlox Daily Observations layout. Learn more.

Left ArrowRight Arrow

53.62937, 11.41316

Hourly Observations for October 2, 2015

Temp ( °F °C ) Dew Point ( °F °C ) Humidity (%) Winds ( mph kmh ) Pressure ( in mb ) Visibility ( mi km ) Precip ( " mm )
6:20 am 06:20 Mostly Cloudy with Fog 41 5 41 5 100 100 WSW 5 7 30.36 1028 0 0 N/A
6:50 am 06:50 Mostly Cloudy with Fog 41 5 41 5 100 100 WSW 3 6 30.36 1028 0 0 N/A
7:20 am 07:20 Mostly Cloudy with Fog 41 5 41 5 100 100 SW 3 6 30.36 1028 0 0 N/A
7:50 am 07:50 Mostly Cloudy with Fog 41 5 41 5 100 100 WSW 3 6 30.36 1028 0 0 N/A
8:20 am 08:20 Mostly Cloudy with Fog 41 5 41 5 100 100 WSW 3 6 30.36 1028 0 0 N/A
8:50 am 08:50 Mostly Cloudy with Fog 43 6 43 6 100 100 WSW 3 6 30.36 1028 0 0 N/A
9:20 am 09:20 Cloudy with Fog 43 6 43 6 100 100 WSW 3 6 30.36 1028 0 1 N/A
9:50 am 09:50 Cloudy with Fog 45 7 45 7 100 100 WSW 5 7 30.36 1028 0 1 N/A
10:20 am 10:20 Cloudy with Fog 46 8 46 8 100 100 WSW 5 7 30.36 1028 1 1 N/A
10:50 am 10:50 Cloudy with Mist and Fog 48 9 48 9 100 100 W 5 7 30.36 1028 1 2 N/A
11:20 am 11:20 Cloudy with Mist and Fog 50 10 50 10 100 100 W 6 9 30.36 1028 3 4 N/A
11:50 am 11:50 Cloudy 50 10 50 10 100 100 WSW 8 13 30.36 1028 5 8 N/A
12:20 pm 12:20 Mostly Cloudy 52 11 50 10 94 94 W 8 13 30.36 1028 30 48 N/A
12:50 pm 12:50 Mostly Cloudy 54 12 50 10 88 88 SW 8 13 30.36 1028 30 48 N/A
1:20 pm 13:20 Partly Cloudy 55 13 50 10 82 82 W 7 11 30.33 1027 30 48 N/A
1:50 pm 13:50 Mostly Sunny 57 14 50 10 77 77 WNW 6 9 30.33 1027 30 48 N/A
2:20 pm 14:20 Mostly Sunny 59 15 50 10 72 72 NW 3 6 30.30 1026 30 48 N/A
2:50 pm 14:50 Mostly Sunny 59 15 48 9 68 68 WNW 5 7 30.30 1026 7 11 N/A
3:20 pm 15:20 Mostly Sunny 61 16 50 10 68 68 VRB 3 6 30.30 1026 7 11 N/A
3:50 pm 15:50 Mostly Sunny 61 16 50 10 68 68 VRB 3 6 30.27 1025 7 11 N/A
4:20 pm 16:20 Mostly Sunny 61 16 48 9 63 63 WSW 5 7 30.27 1025 7 11 N/A
4:50 pm 16:50 Mostly Sunny 63 17 48 9 59 59 WSW 3 6 30.24 1024 7 11 N/A
5:20 pm 17:20 Mostly Sunny 61 16 50 10 68 68 SSW 5 7 30.24 1024 7 11 N/A
5:50 pm 17:50 Mostly Sunny 61 16 48 9 63 63 VRB 2 4 30.24 1024 7 11 N/A
6:20 pm 18:20 Mostly Sunny 59 15 52 11 77 77 VRB 1 2 30.24 1024 7 11 N/A
6:50 pm 18:50 Mostly Clear 52 11 50 10 94 94 VRB 1 2 30.24 1024 7 11 N/A

Powered by AerisWeather